OE7MFI-13 Weather Reports


Display with metric or nautical units.
time (UTC)temp
F
wind
direction
speed
MPH
gust
MPH
rain 1hr
in
rain 24hr
in
rain mn
in
humidity
%
barometer
mb
20260506002202 42 0.0 0.0 0.00 0.00 0.00 85
20260506001212 42 0.0 0.0 0.00 0.00 0.00 86
20260506000204 43 0.0 0.0 0.00 0.00 0.00 82
20260505235209 43 0.0 0.0 0.00 0.00 0.00 83
20260505234204 44 0.0 0.0 0.00 0.00 0.00 82
20260505233211 44 0.0 0.0 0.00 0.00 0.00 82
20260505232201 44 0.0 0.0 0.00 0.00 0.00 82
20260505231210 44 0.0 0.0 0.00 0.00 0.00 82
20260505230307 44 0.0 0.0 0.00 0.00 0.00 82
20260505225209 45 0.0 0.0 0.00 0.00 0.00 80
20260505224202 45 0.0 0.0 0.00 0.00 0.00 80
20260505223210 46 0.0 0.0 0.00 0.00 0.00 79
20260505222201 46 0.0 0.0 0.00 0.00 0.00 79
20260505221210 46 0.0 0.0 0.00 0.00 0.00 80
20260505220202 46 0.0 0.0 0.00 0.00 0.00 80
20260505215231 46 84 0.0 0.0 0.00 0.00 0.00 79
20260505214202 47 0.0 0.0 0.00 0.00 0.00 79
20260505213211 47 0.0 0.0 0.00 0.00 0.00 78
20260505212206 48 0.0 0.0 0.00 0.00 0.00 76
20260505211209 48 0.0 0.0 0.00 0.00 0.00 77
20260505210202 49 0.0 0.0 0.00 0.00 0.00 75
20260505205234 49 0.0 0.0 0.00 0.00 0.00 75
20260505204202 49 0.0 0.0 0.00 0.00 0.00 75
20260505203211 50 0.0 0.0 0.00 0.00 0.00 74
20260505202202 51 0.0 0.0 0.00 0.00 0.00 72
20260505201230 51 0.0 0.0 0.00 0.00 0.00 73
20260505200201 52 265 0.0 0.0 0.00 0.00 0.00 71
20260505195231 52 0.0 0.0 0.00 0.00 0.00 70
20260505194202 53 0.0 0.0 0.00 0.00 0.00 71
20260505193211 53 0.0 0.0 0.00 0.00 0.00 70
20260505192201 54 0.0 0.0 0.00 0.00 0.00 67
20260505191230 54 83 0.0 0.0 0.00 0.00 0.00 68
20260505190202 55 273 0.0 0.0 0.00 0.00 0.00 66
20260505185209 56 0.0 0.0 0.00 0.00 0.00 64
20260505184203 56 269 0.0 0.0 0.00 0.00 0.00 64
20260505183210 58 213 0.0 0.0 0.00 0.00 0.00 60
20260505182202 59 0.0 0.0 0.00 0.00 0.00 59
20260505181209 60 87 0.0 0.0 0.00 0.00 0.00 56
20260505180201 60 62 0.0 0.0 0.00 0.00 0.00 56
20260505175209 61 257 0.0 0.0 0.00 0.00 0.00 54
20260505174202 61 228 0.0 0.0 0.00 0.00 0.00 55
20260505173210 61 272 0.0 0.0 0.00 0.00 0.00 56
20260505172203 61 267 0.0 0.0 0.00 0.00 0.00 57
20260505171210 63 250 0.0 0.0 0.00 0.00 0.00 55
20260505170204 64 0.0 0.0 0.00 0.00 0.00 52
20260505165230 66 0.0 0.0 0.00 0.00 0.00 49
20260505164203 66 0.0 0.0 0.00 0.00 0.00 47
20260505163210 67 0.0 0.0 0.00 0.00 0.00 46
20260505162202 66 274 0.0 1.0 0.00 0.00 0.00 46
20260505161209 65 270 0.0 1.0 0.00 0.00 0.00 47
20260505160202 64 271 1.0 1.0 0.00 0.00 0.00 50
20260505153209 65 252 0.0 0.0 0.00 0.00 0.00 46
20260505152204 66 0.0 0.0 0.00 0.00 0.00 47
20260505151210 65 95 0.0 1.0 0.00 0.00 0.00 47
20260505150202 67 86 0.0 0.0 0.00 0.00 0.00 46
20260505140201 69 326 0.0 0.0 0.00 0.00 0.00 38
20260505130202 71 265 1.0 2.0 0.00 0.00 0.00 36
20260505124202 70 63 0.0 1.0 0.00 0.00 0.00 35
20260505123210 71 70 0.0 1.0 0.00 0.00 0.00 35
20260505122222 71 260 0.0 1.0 0.00 0.00 0.00 33
20260505121210 72 216 1.0 1.0 0.00 0.00 0.00 33
20260505120204 72 232 1.0 2.0 0.00 0.00 0.00 31
20260505115210 74 41 0.0 1.0 0.00 0.00 0.00 31
20260505114222 74 299 0.0 1.0 0.00 0.00 0.00 28
20260505113252 75 74 0.0 0.0 0.00 0.00 0.00 30
20260505112203 75 149 0.0 1.0 0.00 0.00 0.00 27
20260505111211 76 266 0.0 1.0 0.00 0.00 0.00 27
20260505110203 74 315 0.0 0.0 0.00 0.00 0.00 27
20260505102203 74 244 0.0 1.0 0.00 0.00 0.00 28
20260505101211 75 232 0.0 0.0 0.00 0.00 0.00 27
20260505100224 77 70 0.0 0.0 0.00 0.00 0.00 27
20260505095211 75 349 0.0 0.0 0.00 0.00 0.00 28
20260505094203 75 79 0.0 0.0 0.00 0.00 0.00 26
20260505093210 76 284 0.0 0.0 0.00 0.00 0.00 28
20260505092223 74 275 0.0 0.0 0.00 0.00 0.00 27
20260505091211 76 36 0.0 1.0 0.00 0.00 0.00 27
20260505090205 78 106 0.0 1.0 0.00 0.00 0.00 28
20260505085210 77 262 0.0 0.0 0.00 0.00 0.00 30
20260505084206 75 132 0.0 0.0 0.00 0.00 0.00 28
20260505083211 73 0.0 0.0 0.00 0.00 0.00 29
20260505082222 73 267 0.0 1.0 0.00 0.00 0.00 29
20260505081210 74 303 0.0 0.0 0.00 0.00 0.00 31
20260505080202 73 269 0.0 0.0 0.00 0.00 0.00 32
20260505075211 72 270 0.0 0.0 0.00 0.00 0.00 36
20260505074242 71 90 0.0 0.0 0.00 0.00 0.00 39
20260505073209 71 0.0 0.0 0.00 0.00 0.00 41
20260505072202 71 70 0.0 0.0 0.00 0.00 0.00 39
20260505071209 73 284 0.0 0.0 0.00 0.00 0.00 37
20260505070207 72 28 0.0 0.0 0.00 0.00 0.00 42
20260505065215 68 267 0.0 0.0 0.00 0.00 0.00 47
20260505064202 64 57 0.0 0.0 0.00 0.00 0.00 52
20260505063212 61 0.0 0.0 0.00 0.00 0.00 55
20260505062242 60 92 0.0 0.0 0.00 0.00 0.00 57
20260505061211 56 0.0 0.0 0.00 0.00 0.00 63
20260505060240 54 0.0 0.0 0.00 0.00 0.00 64
20260505055210 54 0.0 0.0 0.00 0.00 0.00 66
20260505054202 50 65 0.0 0.0 0.00 0.00 0.00 70
20260505053231 45 87 0.0 0.0 0.00 0.00 0.00 80
20260505052221 41 0.0 0.0 0.00 0.00 0.00 83
20260505051210 41 0.0 0.0 0.00 0.00 0.00 84
20260505050222 41 0.0 0.0 0.00 0.00 0.00 82
20260505041210 41 0.0 0.0 0.00 0.00 0.00 83
20260505040202 41 270 0.0 0.0 0.00 0.00 0.00 84
20260505035210 41 0.0 0.0 0.00 0.00 0.00 82
20260505034204 42 0.0 0.0 0.00 0.00 0.00 83
20260505033209 41 0.0 0.0 0.00 0.00 0.00 83
20260505032201 41 0.0 0.0 0.00 0.00 0.00 82
20260505031209 42 0.0 0.0 0.00 0.00 0.00 82
20260505030202 43 0.0 0.0 0.00 0.00 0.00 80
20260505025209 43 0.0 0.0 0.00 0.00 0.00 80
20260505024203 43 0.0 0.0 0.00 0.00 0.00 80
20260505023210 43 0.0 0.0 0.00 0.00 0.00 80
20260505022201 44 0.0 0.0 0.00 0.00 0.00 79
20260505021209 44 0.0 0.0 0.00 0.00 0.00 80
20260505020221 44 0.0 0.0 0.00 0.00 0.00 80
20260505015210 45 0.0 0.0 0.00 0.00 0.00 77
20260505014301 45 0.0 0.0 0.00 0.00 0.00 77
20260505013209 46 0.0 0.0 0.00 0.00 0.00 77
20260505012201 46 0.0 0.0 0.00 0.00 0.00 77
20260505011229 46 0.0 0.0 0.00 0.00 0.00 76
20260505010222 46 266 0.0 0.0 0.00 0.00 0.00 76
20260505005229 46 0.0 0.0 0.00 0.00 0.00 77
20260505004202 47 87 0.0 0.0 0.00 0.00 0.00 75
20260505003230 47 0.0 0.0 0.00 0.00 0.00 73